[[{"header":{"parameterUnit":"m.s-1","parameterCategory":1,"la1":30.2991,"la2":30.254,"lo1":-89.0895,"lo2":-89.0444,"dy":0.0017,"dx":0.0017,"nx":28,"ny":28,"refTime":"2024-12-19T03:00:00:Z","depth":0,"parameterNumber":2,"parameterNumberName":"U-component_of_WINDS"},"data":[0,0,0,0,0,0,0,0,0,0,0,0,0,0,0,0,0,0,0,0,0,0,0,0,0,0,0,0,0,0,0,0,0,0,0,0,0,0,0,0,0,0,0,0,0,0,0,0,0,0,0,0,0,0,0,0,0,0,2.2079,2.2079,0,2.2108,2.2108,2.2109,2.2083,2.2082,2.2081,2.208,2.2108,2.2109,2.2111,0,0,0,0,0,0,0,0,0,0,0,0,0,2.2001,2.2003,2.2079,2.2079,2.208,2.2108,2.2108,2.2109,2.2083,2.2082,2.208,2.2079,2.2107,2.2109,2.2111,0,0,0,0,0,0,0,0,0,0,0,0,0,2.2033,2.2003,2.2079,2.207,2.207,2.2108,2.2108,2.2109,2.2083,2.2082,2.208,2.2078,2.2106,2.2109,2.2111,2.2159,0,0,2.2119,2.2121,0,0,0,0,0,0,0,0,2.2031,2.2036,2.2071,2.2071,2.207,2.209,2.2091,2.2126,2.2084,2.2078,2.208,2.2078,2.2103,2.2106,2.2115,2.2161,2.2162,2.212,2.2121,2.2122,2.2123,0,0,0,0,0,0,0,2.2029,2.2034,2.209,2.2072,2.2071,2.2065,2.2068,2.2098,2.2099,2.2078,2.2077,2.208,2.2102,2.2112,2.2115,2.2162,2.212,2.2122,2.2123,2.2125,2.225,2.2252,0,0,0,0,0,0,2.2028,2.2033,2.2089,2.2091,2.2047,2.2068,2.2071,2.2085,2.2099,2.2099,2.2082,2.2079,2.2109,2.2112,2.2116,2.2174,2.2122,2.2125,2.2126,2.2249,2.2251,2.2253,0,0,0,0,0,0,2.2026,2.2033,2.2088,2.2062,2.2068,2.2071,2.2087,2.2087,2.2096,2.2101,2.2101,2.2091,2.2107,2.2112,2.2149,2.2174,2.2126,2.2128,2.2246,2.2249,2.2252,2.2289,0,0,0,0,0,0,2.2024,2.2033,2.2051,2.2062,2.207,2.2121,2.2089,2.2088,2.2101,2.2098,2.211,2.2111,2.2107,2.2145,2.2152,2.2177,2.213,2.2244,2.2248,2.2251,2.2285,2.2292,2.2298,0,0,0,0,0,2.2021,2.2059,2.2052,2.2059,2.2092,2.2123,2.2127,2.2122,2.2103,2.2122,2.2125,2.211,2.2171,2.2149,2.2156,2.2183,2.2243,2.2247,2.2251,2.2282,2.2291,2.2298,0,0,0,0,0,0,2.2049,2.206,2.2052,2.2095,2.2108,2.2118,2.2141,2.2131,2.2149,2.2145,2.2138,2.2141,2.218,2.2185,2.2161,2.223,2.2204,2.2209,2.2225,2.2234,2.224,2.2238,2.2132,0,0,0,0,0,2.2061,2.2085,2.2093,2.213,2.2137,2.2138,2.2151,2.2146,2.2159,2.2164,2.217,2.2183,2.2205,2.222,2.224,2.2286,2.2289,2.2308,2.2314,2.232,2.2324,2.235,2.2359,2.2266,2.2266,2.2266,0,0,2.2084,2.2093,2.2108,2.2136,2.2145,2.217,2.2143,2.217,2.2188,2.2168,2.2204,2.2209,2.2223,2.2265,2.2284,2.227,2.2351,2.2325,2.2329,2.2331,2.2355,2.2364,2.2372,2.2269,2.2268,2.2268,0,0,2.2139,2.2148,2.218,2.2191,2.2207,2.2208,2.2216,2.2228,2.2231,2.2266,2.2252,2.2274,2.2312,2.2323,2.2334,2.2396,2.2383,2.2403,2.2436,2.2462,2.2469,2.2476,2.2498,2.2506,2.2407,2.2408,2.2408,0,2.2165,2.2203,2.2198,2.2227,2.224,2.2225,2.2258,2.2268,2.2289,2.2298,2.2284,2.2332,2.234,2.2385,2.2401,2.241,2.2419,2.2401,2.2469,2.2475,2.2481,2.2503,2.2511,2.241,2.241,2.2409,2.2409,0,2.2235,2.2262,2.2286,2.2308,2.2324,2.2355,2.2355,2.2371,2.2366,2.2369,2.2406,2.2416,2.2438,2.2449,2.2443,2.2494,2.2485,2.247,2.2443,2.2492,2.2512,2.2521,2.2413,2.2412,2.2412,2.2411,0,0,2.2307,2.2328,2.2337,2.2347,2.2364,2.2385,2.2416,2.2439,2.2453,2.2469,2.2495,2.2528,2.2515,2.2527,2.2523,2.2545,2.2595,2.2527,2.2527,2.2539,2.2652,2.2663,2.2673,2.2587,2.2589,2.259,2.2651,0,2.2363,2.2417,2.2414,2.2465,2.2489,2.2476,2.2503,2.2517,2.2521,2.2542,2.2546,2.257,2.255,2.2558,2.2579,2.2584,2.2617,2.258,2.2611,2.2612,2.2607,2.2683,2.2695,2.2752,2.2658,2.266,2.2661,0,2.2435,2.2454,2.2508,2.2523,2.2533,2.2557,2.2579,2.26,2.2616,2.2617,2.2632,2.2625,2.2656,2.2629,2.2673,2.2648,2.2661,2.2665,2.2667,2.2669,2.2639,2.2687,2.2769,2.2778,2.2673,2.2672,2.2671,0,2.2482,2.2522,2.2559,2.2569,2.2587,2.2605,2.2613,2.2627,2.2642,2.2661,2.2671,2.2694,2.2706,2.2724,2.2723,2.2703,2.2767,2.274,2.2769,2.2769,2.2783,2.2782,2.2868,2.2792,2.2791,2.2791,2.2791,0,2.2544,2.2577,2.2581,2.2604,2.2641,2.2639,2.2675,2.2682,2.2695,2.2719,2.2709,2.2732,2.273,2.2753,2.2753,2.2789,2.2795,2.2797,2.2796,2.2798,2.2797,2.2805,2.2801,2.2793,2.2793,2.2793,2.2792,0,2.2603,2.2606,2.2646,2.2662,2.2666,2.2693,2.2706,2.2728,2.2732,2.2763,2.277,2.2776,2.2803,2.2804,2.2835,2.2834,2.2879,2.2874,2.2874,2.2873,2.2902,2.29,2.2997,2.3009,2.2925,2.2926,2.2926,0,2.2642,2.2668,2.2686,2.2702,2.2712,2.2738,2.2754,2.2753,2.2769,2.2791,2.281,2.2837,2.2857,2.2901,2.2908,2.2932,2.2927,2.296,2.2931,2.2932,2.2928,2.2927,2.293,2.2965,2.2966,2.2967,2.2968,0,2.2712,2.2713,2.2736,2.2761,2.278,2.2799,2.2817,2.283,2.2832,2.2851,2.2879,2.2896,2.2928,2.2955,2.2979,2.2987,2.2978,2.2977,2.2985,2.2986,2.2986,2.2987,2.2889,2.2974,2.2974,2.2973,2.2973,2.2973,2.2762,2.2785,2.2802,2.2829,2.2842,2.286,2.2882,2.2889,2.2913,2.294,2.2938,2.297,2.2986,2.3017,2.3028,2.3053,2.3041,2.3053,2.3056,2.3059,2.3062,2.2982,2.3057,2.3057,2.3056,2.3056,2.3056,0,2.2832,2.2843,2.2867,2.2893,2.2915,2.2906,2.2925,2.2944,2.2972,2.2988,2.301,2.3043,2.3069,2.3079,2.3105,2.3123,2.3119,2.3129,2.3128,2.313,2.307,2.3061,2.3132,2.3132,2.3132,2.3132,2.3132,2.3132,2.287,2.2908,2.2912,2.2957,2.2968,2.3,2.3012,2.3028,2.3041,2.3079,2.3101,2.3108,2.3122,2.3149,2.3173,2.3175,2.3185,2.3197,2.3198,2.3142,2.3134,2.3127,2.3118,2.32,2.32,2.3256,2.3256,2.3257]},{"header":{"parameterUnit":"m.s-1","parameterCategory":1,"la1":30.2991,"la2":30.254,"lo1":-89.0895,"lo2":-89.0444,"dy":0.0017,"dx":0.0017,"nx":28,"ny":28,"refTime":"2024-12-19T03:00:00:Z","depth":0,"parameterNumber":3,"parameterNumberName":"V-component_of_WINDS"},"data":[0,0,0,0,0,0,0,0,0,0,0,0,0,0,0,0,0,0,0,0,0,0,0,0,0,0,0,0,0,0,0,0,0,0,0,0,0,0,0,0,0,0,0,0,0,0,0,0,0,0,0,0,0,0,0,0,0,0,-5.191,-5.1912,0,-5.2018,-5.2019,-5.202,-5.1988,-5.1985,-5.1983,-5.1981,-5.2089,-5.2094,-5.2099,0,0,0,0,0,0,0,0,0,0,0,0,0,-5.1675,-5.1679,-5.191,-5.1912,-5.1913,-5.2018,-5.2019,-5.2021,-5.1988,-5.1985,-5.1983,-5.198,-5.2087,-5.2093,-5.2099,0,0,0,0,0,0,0,0,0,0,0,0,0,-5.1779,-5.1681,-5.191,-5.1909,-5.191,-5.2017,-5.2019,-5.2021,-5.1989,-5.1985,-5.1982,-5.1979,-5.2085,-5.2093,-5.21,-5.2213,0,0,-5.2123,-5.2126,0,0,0,0,0,0,0,0,-5.1773,-5.1788,-5.1908,-5.191,-5.1911,-5.1986,-5.1976,-5.2085,-5.1989,-5.1959,-5.1981,-5.1977,-5.2057,-5.2067,-5.2094,-5.2218,-5.2223,-5.2123,-5.2128,-5.2131,-5.2133,0,0,0,0,0,0,0,-5.1766,-5.1783,-5.1953,-5.191,-5.1912,-5.1903,-5.1914,-5.1996,-5.2026,-5.1961,-5.1959,-5.1972,-5.2057,-5.2087,-5.2097,-5.2225,-5.2123,-5.213,-5.2134,-5.2137,-5.2447,-5.245,0,0,0,0,0,0,-5.1758,-5.1777,-5.1949,-5.1956,-5.1833,-5.191,-5.1923,-5.1965,-5.2025,-5.203,-5.1975,-5.197,-5.2076,-5.2088,-5.21,-5.2237,-5.2131,-5.2138,-5.2142,-5.2443,-5.2448,-5.2452,0,0,0,0,0,0,-5.1753,-5.1774,-5.1945,-5.1866,-5.1887,-5.1918,-5.1966,-5.1969,-5.1999,-5.2035,-5.204,-5.2,-5.2074,-5.209,-5.2186,-5.224,-5.2141,-5.2148,-5.2439,-5.2445,-5.245,-5.2511,0,0,0,0,0,0,-5.1747,-5.1772,-5.1816,-5.1867,-5.1892,-5.2029,-5.1969,-5.1974,-5.2012,-5.2007,-5.206,-5.2066,-5.2072,-5.2175,-5.2193,-5.2248,-5.2154,-5.2434,-5.2441,-5.2448,-5.2504,-5.2518,-5.253,0,0,0,0,0,-5.1739,-5.1829,-5.1819,-5.184,-5.1947,-5.2033,-5.2046,-5.2053,-5.2017,-5.2061,-5.2084,-5.2064,-5.2231,-5.2185,-5.2205,-5.2264,-5.2431,-5.2439,-5.2447,-5.2498,-5.2515,-5.2529,0,0,0,0,0,0,-5.1783,-5.1835,-5.1825,-5.1935,-5.198,-5.2027,-5.2083,-5.2071,-5.2126,-5.2119,-5.2124,-5.2136,-5.2235,-5.2259,-5.2206,-5.2376,-5.2325,-5.2338,-5.2357,-5.2373,-5.2386,-5.2378,-5.216,0,0,0,0,0,-5.1805,-5.1871,-5.1913,-5.2006,-5.2029,-5.2052,-5.209,-5.2091,-5.2137,-5.2156,-5.2186,-5.2231,-5.2294,-5.2335,-5.2395,-5.2508,-5.2518,-5.2558,-5.2571,-5.2581,-5.2592,-5.2653,-5.2671,-5.248,-5.2479,-5.2479,0,0,-5.1852,-5.1889,-5.193,-5.2016,-5.205,-5.2118,-5.2068,-5.2141,-5.2191,-5.2167,-5.2259,-5.2283,-5.2334,-5.2439,-5.2486,-5.2462,-5.2647,-5.2592,-5.26,-5.2605,-5.2663,-5.2681,-5.2697,-5.2485,-5.2484,-5.2483,0,0,-5.1972,-5.2007,-5.2088,-5.2124,-5.2178,-5.2193,-5.2212,-5.2262,-5.2277,-5.237,-5.2353,-5.2412,-5.252,-5.2557,-5.259,-5.2724,-5.2708,-5.2743,-5.281,-5.2869,-5.2884,-5.2898,-5.2945,-5.2962,-5.2754,-5.2754,-5.2755,0,-5.2024,-5.2125,-5.2131,-5.2206,-5.2244,-5.2226,-5.2307,-5.2342,-5.2412,-5.2438,-5.241,-5.2545,-5.2578,-5.2691,-5.2724,-5.2751,-5.2773,-5.2737,-5.2882,-5.2895,-5.2908,-5.2953,-5.2971,-5.2758,-5.2758,-5.2758,-5.2757,0,-5.2185,-5.2256,-5.2314,-5.2384,-5.2428,-5.2506,-5.2523,-5.2568,-5.2565,-5.2583,-5.2677,-5.2716,-5.2784,-5.2811,-5.2809,-5.2923,-5.2907,-5.288,-5.2829,-5.293,-5.2973,-5.299,-5.2764,-5.2763,-5.2761,-5.2761,0,0,-5.2335,-5.2407,-5.2429,-5.246,-5.2518,-5.2572,-5.2649,-5.2716,-5.2753,-5.2802,-5.2866,-5.2958,-5.2935,-5.2972,-5.2974,-5.3026,-5.313,-5.2993,-5.2995,-5.3017,-5.3258,-5.3277,-5.3297,-5.3119,-5.3123,-5.3125,-5.3254,0,-5.246,-5.2596,-5.2604,-5.2727,-5.2791,-5.2775,-5.2842,-5.2885,-5.2903,-5.2961,-5.2981,-5.3046,-5.301,-5.3032,-5.3083,-5.3106,-5.3178,-5.3097,-5.3178,-5.3181,-5.3166,-5.332,-5.334,-5.3459,-5.327,-5.3273,-5.3275,0,-5.2623,-5.2678,-5.2808,-5.2857,-5.2884,-5.2944,-5.3006,-5.3061,-5.3109,-5.3119,-5.3161,-5.3155,-5.3233,-5.318,-5.3287,-5.3232,-5.3266,-5.3282,-5.3287,-5.3294,-5.3234,-5.3331,-5.3497,-5.3515,-5.3302,-5.33,-5.3298,0,-5.2719,-5.2825,-5.2917,-5.2944,-5.3004,-5.3046,-5.3073,-5.3117,-5.3157,-5.321,-5.3236,-5.3298,-5.3331,-5.3379,-5.339,-5.335,-5.3497,-5.3445,-5.3507,-5.3507,-5.3538,-5.3536,-5.3712,-5.3561,-5.3561,-5.356,-5.356,0,-5.2857,-5.2937,-5.2961,-5.3017,-5.3105,-5.3114,-5.3201,-5.3225,-5.3265,-5.3325,-5.3314,-5.3371,-5.3382,-5.3441,-5.345,-5.3537,-5.3553,-5.3562,-5.3564,-5.3563,-5.3562,-5.3585,-5.3577,-5.3565,-5.3564,-5.3563,-5.3562,0,-5.2979,-5.2998,-5.3097,-5.3145,-5.3159,-5.3223,-5.3264,-5.3317,-5.3335,-5.3411,-5.3429,-5.3457,-5.3525,-5.3541,-5.3622,-5.3628,-5.3732,-5.3725,-5.3716,-5.3715,-5.3776,-5.377,-5.3973,-5.4,-5.3831,-5.3833,-5.3834,0,-5.3065,-5.3126,-5.3182,-5.3222,-5.3251,-5.3315,-5.3355,-5.3366,-5.3408,-5.3467,-5.3514,-5.3581,-5.3635,-5.3745,-5.3772,-5.3834,-5.3829,-5.3895,-5.3838,-5.3835,-5.3829,-5.3825,-5.3831,-5.3906,-5.3908,-5.391,-5.3911,0,-5.3217,-5.3223,-5.3282,-5.3345,-5.3394,-5.3443,-5.3491,-5.3524,-5.3541,-5.3589,-5.3659,-5.3701,-5.3785,-5.3851,-5.3914,-5.394,-5.3929,-5.3929,-5.3946,-5.3946,-5.3938,-5.3943,-5.3745,-5.3924,-5.3923,-5.3922,-5.3921,-5.392,-5.3323,-5.3377,-5.3424,-5.349,-5.3527,-5.3572,-5.3625,-5.3649,-5.3708,-5.3777,-5.378,-5.3856,-5.3902,-5.3985,-5.4015,-5.4075,-5.4054,-5.408,-5.4086,-5.4092,-5.4097,-5.3929,-5.4086,-5.4086,-5.4085,-5.4085,-5.4085,0,-5.3473,-5.3503,-5.3564,-5.3631,-5.3683,-5.3668,-5.372,-5.3764,-5.3832,-5.3876,-5.393,-5.4011,-5.4076,-5.4108,-5.4172,-5.4214,-5.421,-5.423,-5.4227,-5.4233,-5.4112,-5.4091,-5.4232,-5.4232,-5.4232,-5.4232,-5.4232,-5.4232,-5.3558,-5.3647,-5.366,-5.3768,-5.3797,-5.3872,-5.3903,-5.3944,-5.398,-5.407,-5.4125,-5.4145,-5.4185,-5.4252,-5.431,-5.4318,-5.4342,-5.4365,-5.437,-5.4256,-5.4241,-5.4227,-5.4207,-5.437,-5.437,-5.4485,-5.4487,-5.4487]}]]